Pedro Bay, AK

5:02 PM AKDT on August 30, 2016 (GMT -0800)
Iliamna

Weather History for PAIL - March, 2014

Change the Weather History Date:

Sunday, March 2, 2014

  Actual Average Record
Temperature  
Mean Temperature 33 °F -  
Max Temperature 45 °F 29 °F 52 °F (2015)
Min Temperature 21 °F 14 °F -15 °F (1992)
Degree Days  
Heating Degree Days 32    
Moisture  
Dew Point 22 °F    
Average Humidity 72    
Maximum Humidity 88    
Minimum Humidity 40    
Precipitation  
Precipitation 0.00 in - - ()
Sea Level Pressure  
Sea Level Pressure 29.89 in    
Wind  
Wind Speed 6 mph (North)    
Max Wind Speed 10 mph    
Max Gust Speed -    
Visibility 10 miles    
Events      
Averages and records for this station are not official NWS values.
T = Trace of Precipitation, MM = Missing Value Source: NWS Daily Summary

Daily Weather History Graph

Daily Weather History Graph

Search for Another Location

Airport or City:

Trip Planner

Search our weather history database for the weather conditions in past years. The results will help you decide how hot, cold, wet, or windy it might be!

Date:

Astronomy

Mar. 02, 2014 Rise Set
Actual Time 8:13 AM AKST 6:50 PM AKST
Civil Twilight 7:32 AM AKST 7:32 PM AKST
Nautical Twilight 6:44 AM AKST 8:20 PM AKST
Astronomical Twilight 5:56 AM AKST 9:09 PM AKST
Moon 8:19 AM AKST (3/2) 9:40 PM AKST (3/2)
Length of Visible Light 11h 59m
Length of Day
10h 36m
Waxing Crescent, 3% of the Moon is Illuminated
Mar 2
Waxing Crescent
Mar 8
First Quarter
Mar 16
Full
Mar 23
Last Quarter
Mar 30
New

Hourly Weather History & Observations

Time (AKST) Temp. Windchill Dew Point Humidity Pressure Visibility Wind Dir Wind Speed Gust Speed Precip Events Conditions
12:53 AM 28.9 °F 21.9 °F 25.0 °F 85% 29.94 in 10.0 mi West 6.9 mph - N/A   Clear
1:53 AM 28.0 °F 20.8 °F 25.0 °F 88% 29.94 in 10.0 mi WNW 6.9 mph - N/A   Clear
3:53 AM 25.0 °F 17.1 °F 21.0 °F 85% 29.93 in 10.0 mi NNW 6.9 mph - N/A   Clear
4:53 AM 24.1 °F 19.7 °F 21.0 °F 88% 29.92 in 10.0 mi North 3.5 mph - N/A   Clear
5:53 AM 24.1 °F 17.0 °F 21.0 °F 88% 29.92 in 10.0 mi NNE 5.8 mph - N/A   Clear
6:53 AM 23.0 °F 15.8 °F 19.9 °F 88% 29.91 in 10.0 mi NNE 5.8 mph - N/A   Clear
7:53 AM 23.0 °F 13.9 °F 19.9 °F 88% 29.92 in 10.0 mi North 8.1 mph - N/A   Clear
8:53 AM 23.0 °F 13.9 °F 19.9 °F 88% 29.91 in 10.0 mi North 8.1 mph - N/A   Clear
9:53 AM 27.0 °F 18.0 °F 23.0 °F 85% 29.91 in 10.0 mi North 9.2 mph - N/A   Clear
10:53 AM 30.9 °F 22.2 °F 23.0 °F 72% 29.91 in 10.0 mi North 10.4 mph - N/A   Clear
11:53 AM 35.1 °F 28.6 °F 23.0 °F 61% 29.90 in 10.0 mi North 8.1 mph - N/A   Clear
12:53 PM 39.9 °F 35.8 °F 23.0 °F 51% 29.90 in 10.0 mi North 5.8 mph - N/A   Clear
1:53 PM 42.1 °F 39.2 °F 21.0 °F 43% 29.89 in 10.0 mi North 4.6 mph - N/A   Clear
2:53 PM 41.0 °F 39.0 °F 25.0 °F 53% 29.88 in 10.0 mi ESE 3.5 mph - N/A   Partly Cloudy
3:53 PM 43.0 °F 41.3 °F 24.1 °F 47% 29.86 in 10.0 mi ESE 3.5 mph - N/A   Partly Cloudy
4:53 PM 42.1 °F 40.2 °F 25.0 °F 51% 29.85 in 10.0 mi ESE 3.5 mph - N/A   Partly Cloudy
5:53 PM 39.0 °F - 25.0 °F 57% 29.84 in 10.0 mi Calm Calm - N/A   Partly Cloudy
6:53 PM 34.0 °F - 26.1 °F 73% 29.85 in 10.0 mi Calm Calm - N/A   Partly Cloudy
7:53 PM 30.0 °F - 25.0 °F 82% 29.85 in 10.0 mi Calm Calm - N/A   Partly Cloudy
8:53 PM 28.0 °F - 21.0 °F 75% 29.85 in 10.0 mi Calm Calm - N/A   Clear
9:53 PM 27.0 °F 23.0 °F 19.9 °F 75% 29.85 in 10.0 mi NNE 3.5 mph - N/A   Clear
10:53 PM 26.1 °F 21.9 °F 19.9 °F 78% 29.85 in 10.0 mi North 3.5 mph - N/A   Clear
11:53 PM 25.0 °F 18.1 °F 19.0 °F 78% 29.86 in 10.0 mi NNW 5.8 mph - N/A   Clear